カタログに戻る

FENGYUN 1C DEB

LostSSO
NORAD 30473·DEBRIS·🇨🇳 China

打ち上げ May 10, 1999 から Taiyuan Satellite Launch Center

Loading…

次のパス (今後24時間)

TLE

古いSource: Space-Track

元期: Feb 3, 2022, 07:11 UTC

1 30473U 99025AGL 22034.29960867  .00002178  00000-0  86739-3 0  9994
2 30473  98.8568  72.3219 0008291 250.6314 109.3971 14.29661665778141

AllMySatでFENGYUN 1C DEBをリアルタイム追跡

Download on the App Store